When you browse on this site, cookies collect data to enhance your experience and personalize the content and advertising you see.
Visit our Privacy Policy to learn more. By continuing to use the site, you agree to this use of cookies and data.

Stündliche Wetter Vinh

Heute, 13 Juli, Montag

Zeit Temperatur Niederschläge Wind Luftdruck Luftfeuchtigkeit
00:00 +28°C° 0 mm 1 m/S 742 mmHg 80%
01:00 +28°C° 0 mm 1 m/S 742 mmHg 80%
02:00 +28°C° 0 mm 1 m/S 742 mmHg 80%
03:00 +27°C° 0 mm 1 m/S 742 mmHg 81%
04:00 +27°C° 0 mm 1 m/S 742 mmHg 81%
05:00 +28°C° 0 mm 1 m/S 742 mmHg 79%
06:00 +29°C° 0 mm 1 m/S 742 mmHg 76%
07:00 +30°C° 0 mm 1 m/S 743 mmHg 72%
08:00 +32°C° 0 mm 1 m/S 743 mmHg 64%
09:00 +35°C° 0 mm 1 m/S 743 mmHg 56%
10:00 +37°C° 0 mm 1 m/S 743 mmHg 48%
11:00 +39°C° 0 mm 1 m/S 743 mmHg 45%
12:00 +40°C° 0 mm 1 m/S 743 mmHg 41%
13:00 +40°C° 0 mm 1 m/S 743 mmHg 38%
14:00 +39°C° 0.3 mm 1 m/S 742 mmHg 45%
15:00 +36°C° 0.3 mm 1 m/S 742 mmHg 51%
16:00 +35°C° 0.3 mm 1 m/S 741 mmHg 57%
17:00 +33°C° 0.6 mm 1 m/S 741 mmHg 65%
18:00 +31°C° 0.6 mm 1 m/S 742 mmHg 73%
19:00 +30°C° 0.6 mm 1 m/S 742 mmHg 81%
20:00 +29°C° 0.1 mm 1 m/S 742 mmHg 82%
21:00 +29°C° 0.1 mm 1 m/S 743 mmHg 83%
22:00 +28°C° 0.1 mm 1 m/S 743 mmHg 85%
23:00 +28°C° 0 mm 1 m/S 743 mmHg 85%

Morgen, 14 Juli, Dienstag

Zeit Temperatur Niederschläge Wind Luftdruck Luftfeuchtigkeit
00:00 +28°C° 0 mm 1 m/S 743 mmHg 85%
01:00 +28°C° 0 mm 1 m/S 743 mmHg 85%
02:00 +28°C° 0 mm 1 m/S 743 mmHg 85%
03:00 +27°C° 0 mm 1 m/S 743 mmHg 84%
04:00 +27°C° 0 mm 1 m/S 743 mmHg 84%
05:00 +28°C° 0 mm 1 m/S 743 mmHg 81%
06:00 +29°C° 0 mm 1 m/S 743 mmHg 78%
07:00 +30°C° 0 mm 1 m/S 744 mmHg 75%
08:00 +32°C° 0.1 mm 1 m/S 744 mmHg 66%
09:00 +34°C° 0.1 mm 1 m/S 744 mmHg 58%
10:00 +37°C° 0.1 mm 1 m/S 744 mmHg 49%
11:00 +37°C° 0.1 mm 1 m/S 744 mmHg 47%
12:00 +39°C° 0.1 mm 1 m/S 743 mmHg 45%
13:00 +40°C° 0.1 mm 1 m/S 743 mmHg 43%
14:00 +39°C° 0.2 mm 1 m/S 742 mmHg 46%
15:00 +38°C° 0.2 mm 2 m/S 741 mmHg 49%
16:00 +38°C° 0.2 mm 2 m/S 741 mmHg 52%
17:00 +36°C° 0.1 mm 2 m/S 741 mmHg 61%
18:00 +32°C° 0.1 mm 1 m/S 741 mmHg 70%
19:00 +30°C° 0.1 mm 1 m/S 742 mmHg 78%
20:00 +30°C° 0 mm 1 m/S 742 mmHg 80%
21:00 +29°C° 0 mm 1 m/S 743 mmHg 81%
22:00 +29°C° 0 mm 1 m/S 743 mmHg 83%
23:00 +29°C° 0 mm 1 m/S 743 mmHg 83%

übermorgen, 15 Juli, Mittwoch

Zeit Temperatur Niederschläge Wind Luftdruck Luftfeuchtigkeit
00:00 +28°C° 0 mm 1 m/S 743 mmHg 84%
01:00 +28°C° 0 mm 1 m/S 743 mmHg 84%
02:00 +28°C° 0 mm 1 m/S 743 mmHg 84%
03:00 +27°C° 0 mm 1 m/S 742 mmHg 83%
04:00 +27°C° 0 mm 1 m/S 742 mmHg 83%
05:00 +28°C° 0 mm 1 m/S 742 mmHg 80%
06:00 +29°C° 0 mm 1 m/S 743 mmHg 77%
07:00 +30°C° 0 mm 1 m/S 743 mmHg 74%
08:00 +32°C° 0 mm 1 m/S 743 mmHg 65%
09:00 +35°C° 0 mm 1 m/S 743 mmHg 55%
10:00 +37°C° 0 mm 1 m/S 743 mmHg 46%
11:00 +39°C° 0.1 mm 1 m/S 742 mmHg 44%
12:00 +40°C° 0.1 mm 1 m/S 742 mmHg 42%
13:00 +41°C° 0.1 mm 2 m/S 741 mmHg 41%
14:00 +39°C° 0.4 mm 2 m/S 741 mmHg 45%
15:00 +38°C° 0.4 mm 2 m/S 740 mmHg 50%
16:00 +37°C° 0.4 mm 2 m/S 739 mmHg 55%
17:00 +35°C° 0.1 mm 2 m/S 740 mmHg 63%
18:00 +32°C° 0.1 mm 2 m/S 740 mmHg 70%
19:00 +30°C° 0.1 mm 1 m/S 740 mmHg 77%
20:00 +30°C° 0 mm 1 m/S 741 mmHg 78%
21:00 +30°C° 0 mm 1 m/S 741 mmHg 79%
22:00 +29°C° 0 mm 1 m/S 742 mmHg 80%
23:00 +29°C° 0 mm 1 m/S 741 mmHg 80%

16 Juli, Donnerstag

Zeit Temperatur Niederschläge Wind Luftdruck Luftfeuchtigkeit
00:00 +29°C° 0 mm 1 m/S 741 mmHg 81%
01:00 +28°C° 0 mm 1 m/S 741 mmHg 81%
02:00 +28°C° 0 mm 1 m/S 741 mmHg 82%
03:00 +28°C° 0 mm 1 m/S 741 mmHg 82%
04:00 +28°C° 0 mm 1 m/S 741 mmHg 82%
05:00 +29°C° 0 mm 1 m/S 741 mmHg 79%
06:00 +30°C° 0 mm 1 m/S 741 mmHg 76%
07:00 +31°C° 0 mm 1 m/S 742 mmHg 74%
08:00 +33°C° 0 mm 1 m/S 742 mmHg 65%
09:00 +35°C° 0 mm 1 m/S 742 mmHg 56%
10:00 +37°C° 0 mm 1 m/S 742 mmHg 47%
11:00 +39°C° 0.1 mm 1 m/S 741 mmHg 45%
12:00 +40°C° 0.1 mm 1 m/S 741 mmHg 43%
13:00 +40°C° 0.1 mm 2 m/S 740 mmHg 42%
14:00 +40°C° 0.3 mm 2 m/S 740 mmHg 45%
15:00 +39°C° 0.3 mm 2 m/S 739 mmHg 49%
16:00 +38°C° 0.3 mm 3 m/S 739 mmHg 52%
17:00 +36°C° 0 mm 3 m/S 739 mmHg 57%
18:00 +34°C° 0 mm 3 m/S 739 mmHg 63%
19:00 +32°C° 0 mm 2 m/S 739 mmHg 68%
20:00 +31°C° 0 mm 2 m/S 740 mmHg 70%
21:00 +31°C° 0 mm 2 m/S 741 mmHg 72%
22:00 +30°C° 0 mm 2 m/S 742 mmHg 74%
23:00 +30°C° 0 mm 2 m/S 741 mmHg 75%

17 Juli, Freitag

Zeit Temperatur Niederschläge Wind Luftdruck Luftfeuchtigkeit
00:00 +29°C° 0 mm 2 m/S 741 mmHg 76%
01:00 +29°C° 0 mm 2 m/S 741 mmHg 77%
02:00 +29°C° 0 mm 2 m/S 741 mmHg 77%
03:00 +29°C° 0 mm 2 m/S 740 mmHg 78%
04:00 +29°C° 0 mm 1 m/S 740 mmHg 79%
05:00 +30°C° 0 mm 1 m/S 741 mmHg 76%
06:00 +30°C° 0 mm 1 m/S 741 mmHg 74%
07:00 +31°C° 0 mm 1 m/S 741 mmHg 72%
08:00 +34°C° 0 mm 2 m/S 742 mmHg 65%
09:00 +36°C° 0 mm 2 m/S 742 mmHg 58%
10:00 +38°C° 0 mm 2 m/S 742 mmHg 51%
11:00 +38°C° 0 mm 2 m/S 741 mmHg 48%
12:00 +39°C° 0 mm 3 m/S 741 mmHg 45%
13:00 +40°C° 0 mm 3 m/S 740 mmHg 43%
14:00 +41°C° 0 mm 4 m/S 740 mmHg 44%
15:00 +40°C° 0 mm 4 m/S 739 mmHg 46%
16:00 +38°C° 0 mm 4 m/S 739 mmHg 47%
17:00 +36°C° 0 mm 4 m/S 739 mmHg 54%
18:00 +34°C° 0 mm 3 m/S 739 mmHg 60%
19:00 +33°C° 0 mm 3 m/S 740 mmHg 67%
20:00 +31°C° 0 mm 3 m/S 740 mmHg 69%
21:00 +31°C° 0 mm 2 m/S 741 mmHg 71%
22:00 +30°C° 0 mm 2 m/S 741 mmHg 73%
23:00 +30°C° 0 mm 2 m/S 741 mmHg 73%

18 Juli, Samstag

Zeit Temperatur Niederschläge Wind Luftdruck Luftfeuchtigkeit
00:00 +30°C° 0 mm 2 m/S 741 mmHg 74%
01:00 +30°C° 0 mm 2 m/S 740 mmHg 74%
02:00 +30°C° 0 mm 2 m/S 740 mmHg 75%
03:00 +30°C° 0 mm 2 m/S 740 mmHg 76%
04:00 +29°C° 0 mm 2 m/S 740 mmHg 76%
05:00 +30°C° 0 mm 2 m/S 741 mmHg 74%
06:00 +30°C° 0 mm 2 m/S 741 mmHg 72%
07:00 +31°C° 0 mm 2 m/S 741 mmHg 69%
08:00 +33°C° 0 mm 3 m/S 741 mmHg 64%
09:00 +35°C° 0 mm 3 m/S 741 mmHg 58%
10:00 +36°C° 0 mm 3 m/S 742 mmHg 53%
11:00 +37°C° 0 mm 3 m/S 741 mmHg 50%
12:00 +38°C° 0 mm 4 m/S 740 mmHg 46%
13:00 +41°C° 0 mm 4 m/S 740 mmHg 43%
14:00 +40°C° 0 mm 4 m/S 739 mmHg 45%
15:00 +38°C° 0 mm 3 m/S 739 mmHg 47%
16:00 +38°C° 0 mm 3 m/S 739 mmHg 49%
17:00 +36°C° 0 mm 3 m/S 739 mmHg 55%
18:00 +34°C° 0 mm 3 m/S 739 mmHg 62%
19:00 +33°C° 0 mm 3 m/S 740 mmHg 68%
20:00 +31°C° 0 mm 3 m/S 740 mmHg 68%
21:00 +31°C° 0 mm 3 m/S 741 mmHg 68%
22:00 +31°C° 0 mm 2 m/S 741 mmHg 69%
23:00 +31°C° 0 mm 2 m/S 741 mmHg 69%
Mehr zeigen